TimeEST,TemperatureF,Dew PointF,Humidity,Sea Level PressureIn,VisibilityMPH,Wind Direction,Wind SpeedMPH,Gust SpeedMPH,PrecipitationIn,Events,Conditions,WindDirDegrees,DateUTC
12:13 AM,32.0,24.4,74,30.18,10.0,WNW,5.8,-,N/A,,Overcast,300,2012-11-04 04:13:00
12:33 AM,31.6,24.4,75,30.17,10.0,WNW,5.8,-,N/A,,Overcast,300,2012-11-04 04:33:00
12:53 AM,30.9,24.3,76,30.17,10.0,NW,4.6,-,N/A,,Overcast,320,2012-11-04 04:53:00
1:13 AM,30.7,24.6,78,30.17,10.0,Calm,Calm,-,N/A,,Overcast,0,2012-11-04 05:13:00
1:32 AM,30.6,24.4,78,30.18,10.0,Calm,Calm,-,N/A,,Overcast,0,2012-11-04 05:32:00
1:53 AM,30.0,24.6,80,30.18,10.0,West,3.5,-,N/A,,Overcast,260,2012-11-04 05:53:00
1:13 AM,30.6,24.8,79,30.18,10.0,West,3.5,-,N/A,,Overcast,260,2012-11-04 06:13:00
1:32 AM,31.1,25.0,78,30.18,10.0,Calm,Calm,-,N/A,,Overcast,0,2012-11-04 06:32:00
1:53 AM,32.0,25.5,77,30.18,10.0,WNW,5.8,-,N/A,,Overcast,290,2012-11-04 06:53:00
2:13 AM,32.0,25.7,78,30.18,10.0,WNW,5.8,-,N/A,,Overcast,300,2012-11-04 07:13:00
2:32 AM,32.0,25.9,78,30.18,10.0,WNW,6.9,-,N/A,,Overcast,300,2012-11-04 07:32:00
2:53 AM,32.0,26.2,79,30.18,10.0,WNW,5.8,-,N/A,,Overcast,300,2012-11-04 07:53:00
3:13 AM,32.2,26.2,79,30.18,10.0,NW,5.8,-,N/A,,Overcast,320,2012-11-04 08:13:00
3:32 AM,32.2,26.4,79,30.17,10.0,NW,6.9,-,N/A,,Overcast,310,2012-11-04 08:32:00
3:53 AM,32.7,26.6,78,30.17,10.0,NW,5.8,-,N/A,,Overcast,310,2012-11-04 08:53:00
4:13 AM,32.9,26.6,78,30.17,10.0,NW,6.9,-,N/A,,Overcast,310,2012-11-04 09:13:00
4:32 AM,32.9,27.1,79,30.17,10.0,NW,8.1,-,N/A,,Overcast,320,2012-11-04 09:32:00
4:53 AM,33.1,27.3,79,30.17,10.0,NW,5.8,-,N/A,,Overcast,320,2012-11-04 09:53:00
5:13 AM,33.1,27.3,79,30.17,10.0,WNW,5.8,-,N/A,,Overcast,300,2012-11-04 10:13:00
5:32 AM,33.3,27.3,79,30.17,10.0,WNW,4.6,-,N/A,,Overcast,300,2012-11-04 10:32:00
5:53 AM,33.4,27.5,79,30.18,10.0,NW,4.6,-,N/A,,Overcast,310,2012-11-04 10:53:00
6:13 AM,33.4,27.5,79,30.18,10.0,WNW,5.8,-,N/A,,Overcast,300,2012-11-04 11:13:00
6:32 AM,33.4,27.5,79,30.18,10.0,WNW,6.9,-,N/A,,Overcast,300,2012-11-04 11:32:00
6:53 AM,33.8,27.3,77,30.18,10.0,NW,6.9,-,N/A,,Overcast,310,2012-11-04 11:53:00
7:13 AM,33.8,27.3,77,30.19,10.0,WNW,8.1,-,N/A,,Overcast,300,2012-11-04 12:13:00
7:32 AM,33.8,27.1,77,30.20,10.0,NW,6.9,-,N/A,,Overcast,310,2012-11-04 12:32:00
7:53 AM,33.8,27.0,76,30.20,10.0,NW,5.8,-,N/A,,Overcast,310,2012-11-04 12:53:00
8:13 AM,34.2,27.1,75,30.20,10.0,NW,10.4,-,N/A,,Overcast,310,2012-11-04 13:13:00
8:32 AM,34.3,26.8,74,30.20,10.0,WNW,8.1,-,N/A,,Overcast,300,2012-11-04 13:32:00
8:53 AM,34.7,26.6,72,30.20,10.0,WNW,6.9,-,N/A,,Overcast,300,2012-11-04 13:53:00
9:13 AM,35.1,26.4,71,30.20,10.0,WNW,8.1,-,N/A,,Overcast,300,2012-11-04 14:13:00
9:33 AM,35.1,26.1,70,30.20,10.0,NW,9.2,-,N/A,,Overcast,320,2012-11-04 14:33:00
9:53 AM,35.8,26.1,68,30.20,10.0,WNW,6.9,-,N/A,,Overcast,300,2012-11-04 14:53:00
10:13 AM,36.5,26.4,67,30.19,10.0,WNW,9.2,-,N/A,,Overcast,300,2012-11-04 15:13:00
10:33 AM,36.7,26.2,66,30.19,10.0,NNW,8.1,-,N/A,,Overcast,330,2012-11-04 15:33:00
10:53 AM,37.2,26.6,65,30.19,10.0,NW,6.9,-,N/A,,Overcast,320,2012-11-04 15:53:00
11:12 AM,37.4,26.4,65,30.19,10.0,NW,8.1,-,N/A,,Overcast,320,2012-11-04 16:12:00
11:33 AM,37.6,26.4,64,30.19,10.0,WNW,9.2,-,N/A,,Overcast,300,2012-11-04 16:33:00
11:53 AM,37.8,26.1,63,30.18,10.0,NNW,5.8,-,N/A,,Overcast,340,2012-11-04 16:53:00
12:13 PM,38.3,26.6,63,30.18,10.0,NW,8.1,-,N/A,,Overcast,320,2012-11-04 17:13:00
12:33 PM,38.7,26.6,62,30.17,10.0,NW,8.1,-,N/A,,Overcast,320,2012-11-04 17:33:00
12:53 PM,38.3,26.1,61,30.17,10.0,Calm,Calm,-,N/A,,Overcast,0,2012-11-04 17:53:00
1:12 PM,38.3,25.9,61,30.16,10.0,Calm,Calm,-,N/A,,Overcast,0,2012-11-04 18:12:00
1:33 PM,39.7,26.8,60,30.16,10.0,WNW,6.9,-,N/A,,Overcast,300,2012-11-04 18:33:00
1:53 PM,40.1,26.6,59,30.16,10.0,North,6.9,-,N/A,,Overcast,350,2012-11-04 18:53:00
2:12 PM,39.9,26.4,59,30.16,10.0,West,5.8,-,N/A,,Mostly Cloudy,280,2012-11-04 19:12:00
2:33 PM,39.6,26.2,59,30.16,10.0,North,5.8,-,N/A,,Overcast,360,2012-11-04 19:33:00
2:53 PM,39.7,26.6,59,30.16,10.0,NW,4.6,-,N/A,,Scattered Clouds,320,2012-11-04 19:53:00
3:12 PM,39.9,26.6,59,30.16,10.0,NNE,8.1,-,N/A,,Scattered Clouds,30,2012-11-04 20:12:00
3:33 PM,38.8,26.6,61,30.16,10.0,North,5.8,-,N/A,,Scattered Clouds,360,2012-11-04 20:33:00
3:53 PM,38.3,26.6,63,30.16,10.0,NNE,5.8,-,N/A,,Clear,20,2012-11-04 20:53:00
4:12 PM,38.5,26.6,62,30.16,10.0,North,5.8,-,N/A,,Clear,360,2012-11-04 21:12:00
4:33 PM,38.7,26.4,61,30.16,10.0,NNE,3.5,-,N/A,,Clear,30,2012-11-04 21:33:00
4:53 PM,37.6,26.4,64,30.16,10.0,NE,5.8,-,N/A,,Clear,50,2012-11-04 21:53:00
5:12 PM,36.1,26.4,68,30.16,10.0,North,6.9,-,N/A,,Clear,10,2012-11-04 22:12:00
5:33 PM,34.9,25.7,69,30.16,10.0,North,4.6,-,N/A,,Clear,360,2012-11-04 22:33:00
5:53 PM,33.8,25.7,72,30.17,10.0,North,4.6,-,N/A,,Clear,10,2012-11-04 22:53:00
6:12 PM,32.7,25.2,74,30.18,10.0,Calm,Calm,-,N/A,,Clear,0,2012-11-04 23:12:00
6:33 PM,31.5,25.9,80,30.18,10.0,NNE,5.8,-,N/A,,Clear,20,2012-11-04 23:33:00
6:53 PM,32.4,26.8,80,30.18,10.0,North,6.9,-,N/A,,Clear,360,2012-11-04 23:53:00
7:12 PM,32.0,27.1,82,30.18,10.0,North,6.9,-,N/A,,Clear,360,2012-11-05 00:12:00
7:33 PM,32.0,27.1,82,30.18,10.0,North,6.9,-,N/A,,Clear,360,2012-11-05 00:33:00
7:53 PM,31.5,26.8,83,30.18,10.0,North,6.9,-,N/A,,Clear,350,2012-11-05 00:53:00
8:12 PM,30.2,26.2,85,30.18,10.0,North,6.9,-,N/A,,Clear,350,2012-11-05 01:12:00
8:33 PM,29.8,26.1,86,30.18,10.0,NNW,5.8,-,N/A,,Clear,330,2012-11-05 01:33:00
8:53 PM,28.8,25.7,88,30.19,10.0,NNW,5.8,-,N/A,,Clear,330,2012-11-05 01:53:00
9:12 PM,28.2,25.7,90,30.19,10.0,NW,6.9,-,N/A,,Clear,320,2012-11-05 02:12:00
9:33 PM,27.5,25.3,92,30.19,10.0,NW,5.8,-,N/A,,Clear,320,2012-11-05 02:33:00
9:53 PM,27.5,24.8,90,30.18,10.0,NW,6.9,-,N/A,,Clear,310,2012-11-05 02:53:00
10:13 PM,26.8,24.4,91,30.18,10.0,NW,5.8,-,N/A,,Clear,320,2012-11-05 03:13:00
10:33 PM,26.6,24.3,91,30.18,10.0,NNW,5.8,-,N/A,,Clear,330,2012-11-05 03:33:00
10:53 PM,26.4,24.1,91,30.19,10.0,NW,4.6,-,N/A,,Clear,310,2012-11-05 03:53:00